Date String (YYYY-MM-DD hh:mm:ss) UTC,Instrument flags,absolute air pressure of the measurement (hPa),sample flow rate (lpm),inlet stack bypass flow (lpm),air temperature of the measurement (°C),ambient temperature measured by the external sensor (°C),aerosol sample conditioner tube jacket temperature (°C),OPC LED temperature (°C),internal box temperature (°C),relative humidity of the measurement (%),span deviation,mass concentration of particles derived from Lorenz-Mie calculation of OPC scattering (μg/m³),mass concentration of particles derived from Lorenz-Mie calculation of OPC scattering (μg/m³),mass concentration of particles derived from Lorenz-Mie calculation of OPC scattering (μg/m³)
DateTimeUTC,F1_M11,P_M11,Q1_M11,Q2_M11,T1_M11,T2_M11,T3_M11,T4_M11,T5_M11,U1_M11,ZSPAN_M11,X0_M11,X2_M11,X1_M11
2024-03-02 11:00:00,SystemResetWarning,0819.2,5.01,000.00,022.2,021.4,000.0,030.6,024.0,08.7,0000.0,0003.74,0001.83,0000.90
2024-03-02 11:01:00,SystemResetWarning,0819.3,5.00,000.00,022.2,021.4,000.0,030.5,024.0,08.6,0000.0,0003.83,0001.84,0000.90
2024-03-02 11:02:00,SystemResetWarning,0819.2,4.99,000.00,022.2,021.4,000.0,030.5,024.0,08.6,0000.0,0003.94,0001.83,0000.91
2024-03-02 11:03:00,SystemResetWarning,0819.2,4.99,000.00,022.2,021.4,000.0,030.5,023.9,08.5,0000.0,0003.96,0001.83,0000.92
2024-03-02 11:04:00,SystemResetWarning,0819.3,5.00,000.00,022.2,021.4,000.0,030.5,024.0,08.6,0000.0,0004.02,0001.84,0000.93
2024-03-02 11:05:00,SystemResetWarning,0819.3,5.01,000.00,022.2,021.4,000.0,030.5,023.9,08.6,0000.0,0003.78,0001.73,0000.93
2024-03-02 11:06:00,SystemResetWarning,0819.3,5.01,000.00,022.2,021.3,000.0,030.5,023.9,08.6,0000.0,0003.73,0001.70,0000.92
2024-03-02 11:07:00,SystemResetWarning,0819.3,5.00,000.00,022.2,021.3,000.0,030.5,023.9,08.7,0000.0,0003.91,0001.73,0000.92
2024-03-02 11:08:00,SystemResetWarning,0819.2,4.98,000.00,022.2,021.3,000.0,030.5,023.9,08.7,0000.0,0004.08,0001.75,0000.93
2024-03-02 11:09:00,SystemResetWarning,0819.2,5.00,000.00,022.1,021.3,000.0,030.5,023.9,08.7,0000.0,0004.08,0001.76,0000.94
2024-03-02 11:10:00,SystemResetWarning,0819.1,5.00,000.00,022.1,021.3,000.0,030.5,023.9,08.6,0000.0,0004.01,0001.75,0000.93
2024-03-02 11:11:00,SystemResetWarning,0819.2,5.01,000.00,022.1,021.3,000.0,030.5,023.9,08.6,0000.0,0003.93,0001.72,0000.93
2024-03-02 11:12:00,SystemResetWarning,0819.2,5.00,000.00,022.1,021.3,000.0,030.5,023.9,08.5,0000.0,0004.79,0001.71,0000.93
2024-03-02 11:13:00,SystemResetWarning,0819.2,4.99,000.00,022.1,021.3,000.0,030.5,023.9,08.5,0000.0,0004.63,0001.72,0000.93
2024-03-02 11:14:00,SystemResetWarning,0819.2,4.99,000.00,022.1,021.3,000.0,030.5,023.9,08.4,0000.0,0004.73,0001.73,0000.91
2024-03-02 11:15:00,SystemResetWarning,0819.1,4.99,000.00,022.1,021.3,000.0,030.5,023.9,08.5,0000.0,0004.88,0001.77,0000.90
2024-03-02 11:16:00,SystemResetWarning,0819.1,5.01,000.00,022.1,021.3,000.0,030.4,023.9,08.4,0000.0,0005.26,0001.76,0000.89
2024-03-02 11:17:00,SystemResetWarning,0819.1,5.01,000.00,022.1,021.3,000.0,030.4,023.9,08.4,0000.0,0006.03,0001.78,0000.90
2024-03-02 11:18:00,SystemResetWarning,0819.2,4.99,000.00,022.1,021.3,000.0,030.4,023.9,08.6,0000.0,0006.31,0001.73,0000.89
2024-03-02 11:19:00,SystemResetWarning,0819.1,4.99,000.00,022.1,021.3,000.0,030.4,023.9,08.9,0000.0,0007.03,0001.69,0000.88
2024-03-02 11:20:00,SystemResetWarning,0819.2,5.01,000.00,022.1,021.3,000.0,030.4,023.8,08.9,0000.0,0006.71,0001.57,0000.87
2024-03-02 11:21:00,SystemResetWarning,0819.1,5.01,000.00,022.1,021.3,000.0,030.4,023.8,08.8,0000.0,0006.83,0001.57,0000.86
2024-03-02 11:22:00,SystemResetWarning,0819.1,5.01,000.00,022.1,021.2,000.0,030.4,023.8,08.7,0000.0,0007.03,0001.59,0000.86
2024-03-02 11:23:00,SystemResetWarning,0819.1,5.00,000.00,022.1,021.2,000.0,030.4,023.8,08.7,0000.0,0006.30,0001.61,0000.86
2024-03-02 11:24:00,SystemResetWarning,0819.1,4.99,000.00,022.1,021.2,000.0,030.4,023.8,08.7,0000.0,0005.99,0001.59,0000.86
2024-03-02 11:25:00,SystemResetWarning,0819.1,5.00,000.00,022.1,021.2,000.0,030.4,023.8,08.6,0000.0,0006.14,0001.59,0000.86
2024-03-02 11:26:00,SystemResetWarning,0819.1,4.99,000.00,022.1,021.2,000.0,030.4,023.8,08.6,0000.0,0006.06,0001.54,0000.87
2024-03-02 11:27:00,SystemResetWarning,0819.1,5.02,000.00,022.0,021.2,000.0,030.4,023.8,08.5,0000.0,0006.18,0001.53,0000.87
2024-03-02 11:28:00,SystemResetWarning,0819.1,5.00,000.00,022.0,021.2,000.0,030.4,023.8,08.5,0000.0,0005.30,0001.52,0000.86
2024-03-02 11:29:00,SystemResetWarning,0819.0,4.99,000.00,022.0,021.2,000.0,030.4,023.8,08.5,0000.0,0005.61,0001.53,0000.86
2024-03-02 11:30:00,SystemResetWarning,0819.0,4.99,000.00,022.0,021.2,000.0,030.4,023.8,08.5,0000.0,0005.22,0001.56,0000.87
2024-03-02 11:31:00,SystemResetWarning,0819.0,5.00,000.00,022.0,021.2,000.0,030.4,023.8,08.6,0000.0,0005.60,0001.57,0000.87
2024-03-02 11:32:00,SystemResetWarning,0819.0,5.00,000.00,022.0,021.3,000.0,030.4,023.8,08.7,0000.0,0005.47,0001.55,0000.87
2024-03-02 11:33:00,SystemResetWarning,0819.1,5.01,000.00,022.0,021.2,000.0,030.4,023.8,09.0,0000.0,0005.26,0001.53,0000.86
2024-03-02 11:34:00,SystemResetWarning,0819.1,5.00,000.00,022.0,021.2,000.0,030.4,023.8,08.8,0000.0,0005.10,0001.50,0000.86
2024-03-02 11:35:00,SystemResetWarning,0819.0,4.99,000.00,022.0,021.2,000.0,030.4,023.8,08.8,0000.0,0005.26,0001.55,0000.86
2024-03-02 11:36:00,SystemResetWarning,0819.0,4.99,000.00,022.0,021.2,000.0,030.3,023.8,08.8,0000.0,0005.13,0001.55,0000.87
2024-03-02 11:37:00,SystemResetWarning,0819.0,5.01,000.00,022.0,021.2,000.0,030.3,023.8,08.9,0000.0,0006.72,0001.57,0000.86
2024-03-02 11:38:00,SystemResetWarning,0819.0,5.01,000.00,022.0,021.2,000.0,030.3,023.8,09.1,0000.0,0006.52,0001.56,0000.86
2024-03-02 11:39:00,SystemResetWarning,0819.1,5.00,000.00,022.0,021.2,000.0,030.3,023.8,09.1,0000.0,0006.37,0001.55,0000.87
2024-03-02 11:40:00,SystemResetWarning,0819.1,5.00,000.00,022.0,021.2,000.0,030.3,023.8,09.2,0000.0,0005.89,0001.51,0000.87
2024-03-02 11:41:00,SystemResetWarning,0819.0,5.00,000.00,022.0,021.2,000.0,030.3,023.8,08.9,0000.0,0004.94,0001.48,0000.87
2024-03-02 11:42:00,SystemResetWarning,0819.0,5.00,000.00,022.0,021.2,000.0,030.3,023.8,08.7,0000.0,0004.70,0001.55,0000.87
2024-03-02 11:43:00,SystemResetWarning,0819.0,4.99,000.00,022.0,021.2,000.0,030.3,023.8,08.7,0000.0,0005.02,0001.58,0000.88
2024-03-02 11:44:00,SystemResetWarning,0819.0,5.00,000.00,022.0,021.2,000.0,030.3,023.8,08.8,0000.0,0005.34,0001.65,0000.89
2024-03-02 11:45:00,SystemResetWarning,0819.0,5.00,000.00,022.0,021.2,000.0,030.3,023.8,08.8,0000.0,0005.37,0001.67,0000.88
2024-03-02 11:46:00,SystemResetWarning,0819.0,5.00,000.00,022.0,021.2,000.0,030.3,023.8,08.8,0000.0,0005.23,0001.63,0000.88
2024-03-02 11:47:00,SystemResetWarning,0819.0,5.00,000.00,022.0,021.2,000.0,030.3,023.8,08.8,0000.0,0005.20,0001.62,0000.88
2024-03-02 11:48:00,SystemResetWarning,0819.0,5.00,000.00,022.0,021.2,000.0,030.3,023.8,08.9,0000.0,0003.70,0001.61,0000.88
2024-03-02 11:49:00,SystemResetWarning,0819.0,5.00,000.00,022.0,021.2,000.0,030.3,023.8,09.0,0000.0,0003.27,0001.59,0000.88
2024-03-02 11:50:00,SystemResetWarning,0819.0,5.00,000.00,022.0,021.2,000.0,030.3,023.8,08.9,0000.0,0003.24,0001.58,0000.88
2024-03-02 11:51:00,SystemResetWarning,0819.2,5.00,000.00,022.0,021.2,000.0,030.3,023.8,08.9,0000.0,0003.37,0001.62,0000.88
2024-03-02 11:52:00,SystemResetWarning,0819.0,5.00,000.00,022.0,021.2,000.0,030.3,023.8,08.9,0000.0,0003.49,0001.62,0000.88
2024-03-02 11:53:00,SystemResetWarning,0819.0,5.00,000.00,022.0,021.2,000.0,030.3,023.8,09.1,0000.0,0003.30,0001.54,0000.88
2024-03-02 11:54:00,SystemResetWarning,0819.0,5.00,000.00,022.0,021.2,000.0,030.3,023.8,09.1,0000.0,0003.13,0001.50,0000.87
2024-03-02 11:55:00,SystemResetWarning,0819.0,5.01,000.00,022.0,021.2,000.0,030.3,023.8,09.0,0000.0,0002.89,0001.48,0000.87
2024-03-02 11:56:00,SystemResetWarning,0819.1,5.00,000.00,022.0,021.2,000.0,030.3,023.8,09.1,0000.0,0003.07,0001.51,0000.88
2024-03-02 11:57:00,SystemResetWarning,0819.1,4.99,000.00,022.0,021.2,000.0,030.3,023.8,09.0,0000.0,0004.00,0001.51,0000.88
2024-03-02 11:58:00,SystemResetWarning,0819.2,4.99,000.00,022.0,021.2,000.0,030.3,023.8,09.0,0000.0,0004.63,0001.52,0000.88
2024-03-02 11:59:00,SystemResetWarning,0819.2,5.01,000.00,022.0,021.2,000.0,030.3,023.8,08.9,0000.0,0004.86,0001.56,0000.89
